Stations météo

réclame
Mon MeteoGroup
Barranda, Espagne (8365): Température de l'air & dewpoint: 12.01.2019 13:00:00 - 18.01.2019 13:00:00 (CET)Barranda, Espagne (8365): Vitesse du vent & gusts: 12.01.2019 13:00:00 - 18.01.2019 13:00:00 (CET)Barranda, Espagne (8365): Direction du vent: 12.01.2019 13:00:00 - 18.01.2019 13:00:00 (CET)Barranda, Espagne (8365): reduced air pressure: 12.01.2019 13:00:00 - 18.01.2019 13:00:00 (CET)Barranda, Espagne (8365): visibility: 12.01.2019 13:00:00 - 18.01.2019 13:00:00 (CET)Barranda, Espagne (8365): Ensoleillement: 12.01.2019 13:00:00 - 18.01.2019 13:00:00 (CET)Barranda, Espagne (8365): Quantités de précipitations: 12.01.2019 13:00:00 - 18.01.2019 13:00:00 (CET)
Date & Time tt [°C] td [°C] ff [km/h] ff [knt] fx [km/h] fx [knt] dd ppp [hPa] vv [km] sd [min] rr [mm]
18.01.2019 13:00:00 - - - - - - - - - - -
18.01.2019 12:00:00 9,3 -0,7 5 3 10 5 ENE 1019,6 20 60 0,0
18.01.2019 11:00:00 8,9 -0,5 3 1 10 5 SE 1019,8 20 60 0,0
18.01.2019 10:00:00 4,9 -0,3 2 1 23 12 WNW 1021,1 20 60 0,0
18.01.2019 09:00:00 0,4 -2,7 13 7 23 12 WSW 1022,3 20 14 0,0
18.01.2019 08:00:00 -0,6 -2,5 8 4 17 9 WSW 1022,4 19 0 0,0
18.01.2019 07:00:00 0,2 -2,5 5 3 16 9 WSW 1021,7 17 0 -
18.01.2019 06:00:00 0,1 -1,7 7 4 13 7 W 1021,4 18 0 0,0
18.01.2019 05:00:00 0,7 -1,0 7 4 13 7 W 1021,3 20 0 0,0
18.01.2019 04:00:00 0,3 -1,7 3 1 6 3 W 1021,6 12 0 0,0
18.01.2019 03:00:00 2,3 -1,2 5 3 12 7 W 1020,8 20 0 0,0
18.01.2019 02:00:00 1,9 -1,2 5 3 11 6 W 1020,6 18 0 0,0
18.01.2019 01:00:00 2,8 -0,7 1 1 8 5 WNW 1021,0 18 0 -
18.01.2019 00:00:00 5,0 0,9 3 2 6 3 WNW 1020,8 19 0 0,0
17.01.2019 23:00:00 6,0 0,9 2 1 10 6 WNW 1020,3 20 0 0,0
17.01.2019 22:00:00 6,2 0,4 3 2 8 4 ESE 1019,8 18 0 0,0
17.01.2019 21:00:00 6,0 0,6 2 1 6 4 NNW 1019,2 20 0 0,0
17.01.2019 20:00:00 5,9 0,6 3 1 5 3 NNW 1018,8 20 0 0,0
17.01.2019 19:00:00 7,1 1,3 3 2 9 5 NNE 1017,9 20 0 -
17.01.2019 18:00:00 9,0 0,6 6 3 16 9 E 1016,5 20 0 0,0
17.01.2019 17:00:00 10,4 0,6 9 5 17 9 ENE 1015,9 20 8 0,0
17.01.2019 16:00:00 10,9 1,1 8 5 16 9 ENE 1015,6 20 0 0,0
17.01.2019 15:00:00 10,9 1,7 5 3 13 7 ESE 1015,9 18 0 0,0
17.01.2019 14:00:00 9,3 1,5 4 2 9 5 E 1016,6 18 2 0,0
17.01.2019 13:00:00 8,7 1,1 3 2 7 4 SE 1017,7 20 54 -
17.01.2019 12:00:00 8,0 1,1 2 1 9 5 NNE 1018,6 20 60 0,0
17.01.2019 11:00:00 7,0 1,3 2 1 7 4 SE 1019,0 8 26 0,0
17.01.2019 10:00:00 5,1 1,1 5 3 10 6 WSW 1019,0 20 24 0,0
17.01.2019 09:00:00 2,7 0,2 7 4 12 7 WSW 1019,2 20 0 0,0
17.01.2019 08:00:00 1,7 -0,3 4 2 9 5 W 1019,4 11 0 0,0
17.01.2019 07:00:00 2,1 -0,3 5 3 12 7 WNW 1018,7 15 0 -
17.01.2019 06:00:00 2,5 -0,3 7 4 15 8 WNW 1018,5 17 0 0,0
17.01.2019 05:00:00 3,4 -0,3 11 6 17 9 W 1018,5 20 0 0,0
17.01.2019 04:00:00 3,1 -0,3 8 4 16 9 W 1019,2 19 0 0,0
17.01.2019 03:00:00 2,1 -0,7 1 1 18 10 SW 1019,6 12 0 0,0
17.01.2019 02:00:00 2,9 -0,5 7 4 18 10 W 1019,6 19 0 0,0
17.01.2019 01:00:00 3,2 0,0 8 4 21 12 WSW 1019,7 18 0 -
17.01.2019 00:00:00 4,0 0,0 12 7 19 10 WSW 1019,8 20 0 0,0
16.01.2019 23:00:00 4,7 0,6 10 5 14 8 W 1019,9 20 0 0,0
16.01.2019 22:00:00 3,1 0,0 6 4 10 5 WNW 1020,1 19 0 0,0
16.01.2019 21:00:00 4,5 0,0 2 1 16 8 W 1019,4 20 0 0,0
16.01.2019 20:00:00 7,3 0,6 11 6 14 8 W 1018,2 20 0 0,0
16.01.2019 19:00:00 7,6 1,1 5 3 13 7 NW 1017,9 20 0 -
16.01.2019 18:00:00 9,6 1,7 4 2 12 6 NW 1017,0 20 0 0,0
16.01.2019 17:00:00 12,1 1,1 8 4 14 8 ENE 1016,4 20 32 0,0
16.01.2019 16:00:00 12,7 1,1 6 4 13 7 E 1016,5 20 6 0,0
16.01.2019 15:00:00 12,6 2,1 8 4 15 8 E 1016,7 20 0 0,0
16.01.2019 14:00:00 13,0 1,9 8 4 13 7 E 1017,2 20 39 0,0
16.01.2019 13:00:00 12,1 1,9 5 3 10 5 ESE 1018,4 20 60 -
16.01.2019 12:00:00 11,0 2,1 6 4 13 7 E 1019,6 20 60 0,0
16.01.2019 11:00:00 10,1 1,7 3 1 16 9 ESE 1020,1 20 60 0,0
16.01.2019 10:00:00 5,4 -0,7 11 6 21 12 W 1021,3 20 60 0,0
16.01.2019 09:00:00 - - - - - - - - - - -
16.01.2019 08:00:00 - - - - - - - - - - -
16.01.2019 07:00:00 - - - - - - - - - - -
16.01.2019 06:00:00 - - - - - - - - - - -
16.01.2019 05:00:00 1,2 -1,0 6 4 21 11 W 1022,5 13 0 0,0
16.01.2019 04:00:00 - - - - - - - - - - -
16.01.2019 03:00:00 1,5 -0,5 7 4 15 8 W 1023,1 8 0 0,0
16.01.2019 02:00:00 2,5 0,0 6 3 23 12 W 1023,0 19 0 0,0
16.01.2019 01:00:00 3,1 0,4 14 8 24 13 W 1023,2 20 0 -
16.01.2019 00:00:00 3,9 0,9 13 7 23 12 W 1023,4 20 0 0,0
15.01.2019 23:00:00 4,9 2,3 11 6 19 10 WSW 1023,3 20 0 0,0
15.01.2019 22:00:00 4,8 1,9 9 5 13 7 WSW 1023,1 20 0 0,0
15.01.2019 21:00:00 6,4 3,4 9 5 14 8 WSW 1022,6 20 0 0,0
15.01.2019 20:00:00 6,5 3,2 5 3 10 6 WNW 1022,3 20 0 0,0
15.01.2019 19:00:00 7,3 3,6 6 3 11 6 NNW 1021,8 20 0 -
15.01.2019 18:00:00 10,3 4,3 4 2 11 6 NW 1020,5 20 0 0,0
15.01.2019 17:00:00 12,5 4,1 8 5 17 9 E 1019,8 16 33 0,0
15.01.2019 16:00:00 13,5 3,6 11 6 19 11 E 1019,5 20 3 0,0
15.01.2019 15:00:00 14,4 1,9 9 5 18 10 E 1019,2 20 3 0,0
15.01.2019 14:00:00 14,6 1,1 9 5 16 9 E 1019,5 20 39 0,0
15.01.2019 13:00:00 15,2 0,2 8 5 20 11 SW 1020,1 20 60 -
15.01.2019 12:00:00 14,1 -0,7 6 4 11 6 ESE 1021,4 20 60 0,0
15.01.2019 11:00:00 10,7 -0,3 3 2 16 9 SW 1022,6 20 60 0,0
15.01.2019 10:00:00 7,3 -1,4 6 3 20 11 WSW 1023,0 20 60 0,0
15.01.2019 09:00:00 2,9 -2,7 15 8 22 12 WSW 1023,7 20 17 0,0
15.01.2019 08:00:00 1,5 -3,3 6 3 25 14 W 1023,9 20 0 0,0
15.01.2019 07:00:00 2,3 -3,6 18 10 25 14 WSW 1023,3 20 0 -
15.01.2019 06:00:00 2,1 -3,6 9 5 18 10 WSW 1023,1 20 0 0,0
15.01.2019 05:00:00 3,0 -3,6 14 7 19 10 WSW 1022,8 20 0 0,0
15.01.2019 04:00:00 3,6 -3,9 15 8 22 12 W 1023,0 20 0 0,0
15.01.2019 03:00:00 4,7 -3,6 11 6 22 12 W 1022,8 20 0 0,0
15.01.2019 02:00:00 4,9 -3,6 14 8 22 12 W 1022,5 20 0 0,0
15.01.2019 01:00:00 4,9 -3,9 13 7 22 12 W 1022,6 20 0 -
15.01.2019 00:00:00 5,4 -3,0 9 5 18 10 WSW 1022,5 20 0 0,0
14.01.2019 23:00:00 6,1 -3,6 9 5 18 10 WSW 1022,4 20 0 0,0
14.01.2019 22:00:00 7,6 -3,0 9 5 16 9 WSW 1021,6 20 0 0,0
14.01.2019 21:00:00 7,6 -3,0 7 4 13 7 WSW 1021,5 20 0 0,0
14.01.2019 20:00:00 8,0 -3,0 6 4 11 6 NW 1020,7 20 0 0,0
14.01.2019 19:00:00 10,6 -3,6 6 4 12 6 WNW 1019,6 20 0 -
14.01.2019 18:00:00 13,6 -2,5 4 2 17 9 NW 1018,2 20 0 0,0
14.01.2019 17:00:00 18,6 -4,2 10 5 26 14 NE 1016,7 20 38 0,0
14.01.2019 16:00:00 19,5 -3,6 11 6 31 17 NE 1016,5 20 5 0,0
14.01.2019 15:00:00 19,9 -4,5 12 6 27 15 NE 1016,5 20 4 0,0
14.01.2019 14:00:00 20,8 -3,6 7 4 23 13 N 1016,6 20 37 0,0
14.01.2019 13:00:00 - - - - - - - - - - -
14.01.2019 12:00:00 18,4 -0,5 6 4 12 6 ESE 1019,3 20 60 0,0
14.01.2019 11:00:00 15,5 -0,3 6 3 16 9 E 1020,3 20 60 0,0
14.01.2019 10:00:00 11,0 -0,3 6 3 14 8 S 1021,7 13 60 0,0
14.01.2019 09:00:00 4,2 -1,7 5 3 13 7 WSW 1023,6 20 16 0,0
14.01.2019 08:00:00 1,9 -2,5 4 2 22 12 W 1024,2 20 0 0,0
14.01.2019 07:00:00 3,9 -3,0 7 4 21 12 W 1023,6 20 0 -
14.01.2019 06:00:00 4,8 -3,6 8 5 23 12 W 1023,4 20 0 0,0
14.01.2019 05:00:00 4,2 -3,9 3 2 20 11 W 1024,2 20 0 0,0
14.01.2019 04:00:00 5,5 -4,2 13 7 34 18 W 1024,5 20 0 0,0
14.01.2019 03:00:00 4,8 -4,5 25 13 33 18 WSW 1024,5 20 0 0,0
14.01.2019 02:00:00 4,2 -4,8 18 10 32 17 WSW 1025,0 20 0 0,0
14.01.2019 01:00:00 4,3 -5,1 21 12 30 16 WSW 1025,4 20 0 -
14.01.2019 00:00:00 3,8 -5,4 16 9 26 14 W 1026,3 20 0 0,0
13.01.2019 23:00:00 4,3 -5,4 16 9 24 13 W 1026,3 20 0 0,0
13.01.2019 22:00:00 4,7 -5,4 14 7 22 12 W 1026,3 20 0 0,0
13.01.2019 21:00:00 5,7 -3,9 8 4 12 6 W 1026,0 20 0 0,0
13.01.2019 20:00:00 4,9 -3,3 5 3 9 5 W 1026,5 20 0 0,0
13.01.2019 19:00:00 6,0 -3,6 4 2 7 4 WNW 1025,8 20 0 -
13.01.2019 18:00:00 9,8 -2,5 4 2 9 5 NW 1024,2 20 0 0,0
13.01.2019 17:00:00 14,5 -5,4 6 4 12 7 ESE 1022,5 15 37 0,0
13.01.2019 16:00:00 15,4 -5,7 7 4 13 7 ESE 1022,5 19 2 0,0
13.01.2019 15:00:00 15,5 -5,1 6 3 12 6 E 1022,7 20 7 0,0
13.01.2019 14:00:00 15,3 -4,8 8 4 16 8 E 1023,5 20 34 0,0
13.01.2019 13:00:00 14,8 -6,0 2 1 8 5 ENE 1024,4 20 60 -
13.01.2019 12:00:00 12,8 -6,7 2 1 8 4 S 1026,5 20 60 0,0
13.01.2019 11:00:00 10,3 -6,4 4 2 10 6 S 1027,6 20 60 0,0
13.01.2019 10:00:00 4,8 -6,0 4 2 31 17 WSW 1028,8 20 60 0,0
13.01.2019 09:00:00 0,8 -7,1 16 9 25 14 W 1029,4 20 17 0,0
13.01.2019 08:00:00 0,8 -7,1 15 8 23 12 WSW 1029,2 20 0 0,0
13.01.2019 07:00:00 0,5 -7,1 13 7 23 12 W 1029,4 20 0 -
13.01.2019 06:00:00 -2,0 -6,4 2 1 19 10 W 1030,4 20 0 0,0
13.01.2019 05:00:00 -0,2 -6,7 10 5 21 11 WSW 1029,7 20 0 0,0
13.01.2019 04:00:00 0,8 -7,1 14 7 27 14 WSW 1029,9 20 0 0,0
13.01.2019 03:00:00 0,9 -6,7 13 7 28 15 W 1030,4 20 0 0,0
13.01.2019 02:00:00 1,4 -7,1 18 10 27 15 WSW 1030,1 20 0 0,0
13.01.2019 01:00:00 1,2 -7,1 17 9 28 15 W 1030,5 20 0 -
13.01.2019 00:00:00 1,4 -7,5 13 7 25 13 W 1031,0 20 0 0,0
12.01.2019 23:00:00 1,7 -7,5 14 8 22 12 WSW 1031,2 20 0 0,0
12.01.2019 22:00:00 0,1 -6,4 5 3 12 7 W 1031,6 20 0 0,0
12.01.2019 21:00:00 2,3 -7,1 7 4 11 6 W 1030,6 20 0 0,0
12.01.2019 20:00:00 2,8 -7,1 5 3 14 8 WSW 1030,5 20 0 0,0
12.01.2019 19:00:00 2,7 -5,4 7 4 11 6 WNW 1029,9 20 0 -
12.01.2019 18:00:00 6,2 -5,7 5 3 12 6 NW 1028,4 20 0 0,0
12.01.2019 17:00:00 10,2 -8,6 8 4 13 7 E 1027,0 20 36 0,0
12.01.2019 16:00:00 10,6 -9,9 4 2 10 5 ESE 1026,7 20 1 0,0
12.01.2019 15:00:00 10,4 -9,9 5 3 10 6 E 1027,0 20 9 0,0
12.01.2019 14:00:00 10,5 -9,4 5 3 11 6 ESE 1027,5 20 36 0,0
12.01.2019 13:00:00 9,7 -9,4 6 3 11 6 ENE 1028,7 20 60 -

tt = Température de l'air
td = dewpoint
ff = Vitesse du vent
fx = gusts
dd = Direction du vent
ppp = reduced air pressure
vv = visibility
sd = Ensoleillement
rr = Quantités de précipitations

stations d'obs. à proximité